Location: Althorst
(53.6379°N, 10.7715°E)
Time: 18:53:02
(UTC+00:00)

NOSS 3-1 (A) - Pass Details

Date: 10 December 2019
Orbit: 766 x 1446 km, 63.4° (Epoch: 21 January)

Event Time Altitude Azimuth Distance (km) Brightness Sun altitude
Rises 18:01:54 0° 308° (NW) 3,775 7.3 -25.9°
Reaches altitude 10° 18:04:23 10° 311° (NW) 2,913 6.5 -26.3°
Maximum altitude 18:11:23 66° 34° (NE) 1,314 3.9 -27.3°
Enters shadow 18:12:35 58° 76° (ENE) 1,412 3.9 -27.5°
